User: anonymous   Login
Location: Unspecified
(0.0000°N, 0.0000°E)
Time: 19:08:40
(UTC+00:00)
Language:

STARLINK-4753 - Orbit

View from above orbital plane
View from above orbital plane
View from above satellite
View from above satellite

Ground track
Ground track

The orbit is defined by the following mean orbital elements,

1 53845U          26144.74770851 +.00000000 +00000-0 +61830-4 0 00006
2 53845  53.2135 312.7095 0001337  98.3411 261.7733 15.08838585    03
Epoch (UTC): 24 May 2026 17:56:42
Eccentricity: 0.0001337
inclination: 53.2135°
perigee height: 539 km
apogee height: 541 km
right ascension of ascending node: 312.7095°
argument of perigee: 98.3411°
revolutions per day: 15.08838585
mean anomaly at epoch: 261.7733°

The dashed part of the orbit path shows where the satellite is in the earth's shadow,  

DLR